﻿_id,日時,平均風速(m/s),平均風向,最大瞬間風速(m/s),最大風速時風向,気温(℃),湿度(%),10分間移動積算雨量(mm),1時間移動積算雨量(mm),日雨量(mm),累計雨量(mm)
1,2021-07-05T00:00:00,1.2,南南東,2.2,南南東,26.3,90.3,0,0,1,21.5
2,2021-07-05T00:01:00,1.3,南南東,2.5,南南東,26.2,90.3,0,0,0,21.5
3,2021-07-05T00:02:00,1.3,南南東,2.5,南南東,26.3,90.3,0,0,0,21.5
4,2021-07-05T00:03:00,1.4,南南東,2.5,南南東,26.3,90.3,0,0,0,21.5
5,2021-07-05T00:04:00,1.5,南南東,2.5,南南東,26.3,90.3,0,0,0,21.5
6,2021-07-05T00:05:00,1.6,南南東,2.5,南南東,26.3,90.3,0,0,0,21.5
7,2021-07-05T00:06:00,1.6,南南東,2.5,南南東,26.3,90.3,0,0,0,21.5
8,2021-07-05T00:07:00,1.7,南南東,2.8,南,26.3,90.3,0,0,0,21.5
9,2021-07-05T00:08:00,1.7,南南東,2.8,南,26.3,90.3,0,0,0,21.5
10,2021-07-05T00:09:00,1.8,南南東,2.8,南,26.3,90.2,0,0,0,21.5
11,2021-07-05T00:10:00,1.8,南南東,2.8,南,26.3,90.2,0,0,0,21.5
12,2021-07-05T00:11:00,1.8,南南東,2.9,南東,26.3,90.3,0,0,0,21.5
13,2021-07-05T00:12:00,1.9,南南東,3.3,南南東,26.2,90.3,0,0,0,21.5
14,2021-07-05T00:13:00,1.9,南南東,3.3,南南東,26.2,90.5,0,0,0,21.5
15,2021-07-05T00:14:00,2,南南東,3.3,南南東,26.2,90.7,0,0,0,21.5
16,2021-07-05T00:15:00,2,南南東,3.3,南南東,26.2,90.7,0,0,0,21.5
17,2021-07-05T00:16:00,2,南南東,3.3,南南東,26.2,90.7,0,0,0,21.5
18,2021-07-05T00:17:00,1.9,南南東,3.3,南南東,26.2,90.7,0,0,0,21.5
19,2021-07-05T00:18:00,1.9,南南東,3.3,南南東,26.2,90.8,0,0,0,21.5
20,2021-07-05T00:19:00,1.9,南南東,3.3,南南東,26.2,90.8,0,0,0,21.5
21,2021-07-05T00:20:00,1.8,南南東,3.3,南南東,26.2,90.8,0,0,0,21.5
22,2021-07-05T00:21:00,1.8,南南東,3.3,南南東,26.2,90.8,0,0,0,21.5
23,2021-07-05T00:22:00,1.7,南南東,2.8,南南東,26.2,90.8,0,0,0,21.5
24,2021-07-05T00:23:00,1.7,南南東,2.8,南南東,26.2,91,0,0,0,21.5
25,2021-07-05T00:24:00,1.7,南南東,3.1,南南東,26.1,91,0,0,0,21.5
26,2021-07-05T00:25:00,1.7,南南東,3.1,南南東,26.2,91,0,0,0,21.5
27,2021-07-05T00:26:00,1.8,南南東,3.1,南南東,26.2,91,0,0,0,21.5
28,2021-07-05T00:27:00,1.8,南南東,3.1,南南東,26.2,91,0,0,0,21.5
29,2021-07-05T00:28:00,1.9,南南東,3.2,南東,26.2,91,0,0,0,21.5
30,2021-07-05T00:29:00,2,南南東,3.2,南東,26.2,90.8,0,0,0,21.5
31,2021-07-05T00:30:00,2,南南東,3.2,南東,26.2,90.7,0,0,0,21.5
32,2021-07-05T00:31:00,2.1,南東,3.2,南東,26.2,90.7,0,0,0,21.5
33,2021-07-05T00:32:00,2,南東,3.2,南東,26.2,90.7,0,0,0,21.5
34,2021-07-05T00:33:00,2,南東,3.2,南東,26.2,90.7,0,0,0,21.5
35,2021-07-05T00:34:00,2,南南東,3.2,南東,26.2,90.7,0,0,0,21.5
36,2021-07-05T00:35:00,2,南南東,3.2,南東,26.2,90.7,0,0,0,21.5
37,2021-07-05T00:36:00,1.9,南南東,3.2,南東,26.2,90.7,0,0,0,21.5
38,2021-07-05T00:37:00,1.9,南東,3.2,南東,26.2,90.7,0,0,0,21.5
39,2021-07-05T00:38:00,1.8,南東,3.1,南南東,26.2,90.7,0,0,0,21.5
40,2021-07-05T00:39:00,1.8,南東,2.9,南南東,26.1,90.8,0,0,0,21.5
41,2021-07-05T00:40:00,1.8,南東,2.9,南南東,26.1,90.9,0,0,0,21.5
42,2021-07-05T00:41:00,1.8,南南東,2.9,南南東,26.1,91,0,0,0,21.5
43,2021-07-05T00:42:00,1.8,南南東,2.9,南南東,26.1,91,0,0,0,21.5
44,2021-07-05T00:43:00,1.9,南南東,2.9,南南東,26.1,91.1,0,0,0,21.5
45,2021-07-05T00:44:00,1.8,南南東,2.9,南南東,26.1,91.1,0,0,0,21.5
46,2021-07-05T00:45:00,1.8,南南東,2.9,南南東,26.1,91.1,0,0,0,21.5
47,2021-07-05T00:46:00,1.7,南南東,2.4,南南東,26.1,91.2,0,0,0,21.5
48,2021-07-05T00:47:00,1.7,南南東,2.5,南東,26.1,91.2,0,0,0,21.5
49,2021-07-05T00:48:00,1.7,南南東,2.5,南東,26.1,91.2,0,0,0,21.5
50,2021-07-05T00:49:00,1.6,南南東,2.5,南東,26.1,91.2,0,0,0,21.5
51,2021-07-05T00:50:00,1.6,南南東,2.5,南東,26.1,91.2,0,0,0,21.5
52,2021-07-05T00:51:00,1.5,南南東,2.5,南東,26.1,91.1,0,0,0,21.5
53,2021-07-05T00:52:00,1.4,南南東,2.5,南東,26.1,91.2,0,0,0,21.5
54,2021-07-05T00:53:00,1.3,南東,2.5,南東,26.1,91.2,0,0,0,21.5
55,2021-07-05T00:54:00,1.3,南東,2.5,南東,26.1,91.2,0,0,0,21.5
56,2021-07-05T00:55:00,1.3,南東,2.5,南東,26.1,91.3,0,0,0,21.5
57,2021-07-05T00:56:00,1.3,南東,2.5,南東,26.1,91.4,0,0,0,21.5
58,2021-07-05T00:57:00,1.3,南東,2.3,南東,26.1,91.4,0,0,0,21.5
59,2021-07-05T00:58:00,1.3,南東,2.3,南東,26.1,91.4,0,0,0,21.5
60,2021-07-05T00:59:00,1.3,南東,2.3,南東,26.1,91.4,0,0,0,21.5
61,2021-07-05T01:00:00,1.4,南東,2.8,南東,26.1,91.4,0,0,0,21.5
62,2021-07-05T01:01:00,1.4,南東,2.8,南東,26.1,91.3,0,0,0,21.5
63,2021-07-05T01:02:00,1.5,南東,2.8,南東,26.1,91.3,0,0,0,21.5
64,2021-07-05T01:03:00,1.5,南東,2.8,南東,26.1,91.2,0,0,0,21.5
65,2021-07-05T01:04:00,1.5,南東,2.8,南東,26.1,91.2,0,0,0,21.5
66,2021-07-05T01:05:00,1.5,南東,2.8,南東,26.1,91.1,0,0,0,21.5
67,2021-07-05T01:06:00,1.4,南東,2.8,南東,26.1,91,0,0,0,21.5
68,2021-07-05T01:07:00,1.3,南東,2.8,南東,26.1,91.2,0,0,0,21.5
69,2021-07-05T01:08:00,1.2,南南東,2.8,南東,26.1,91.2,0,0,0,21.5
70,2021-07-05T01:09:00,1.2,南南東,2.8,南東,26.1,91.2,0,0,0,21.5
71,2021-07-05T01:10:00,1.1,南南東,2.1,南東,26.1,91.2,0,0,0,21.5
72,2021-07-05T01:11:00,1.1,南南東,2.1,南東,26.1,91.3,0,0,0,21.5
73,2021-07-05T01:12:00,1.1,南南東,2.2,東南東,26,91.3,0,0,0,21.5
74,2021-07-05T01:13:00,1.2,南東,2.5,東南東,26,91.4,0,0,0,21.5
75,2021-07-05T01:14:00,1.2,南東,2.5,東南東,26.1,91.4,0,0,0,21.5
76,2021-07-05T01:15:00,1.3,南東,2.5,東南東,26,91.4,0,0,0,21.5
77,2021-07-05T01:16:00,1.5,南東,2.5,東南東,26.1,91.4,0,0,0,21.5
78,2021-07-05T01:17:00,1.5,南東,2.5,東南東,26.1,91.4,0,0,0,21.5
79,2021-07-05T01:18:00,1.6,東南東,2.5,東南東,26.1,91.4,0,0,0,21.5
80,2021-07-05T01:19:00,1.6,東南東,2.5,東南東,26.1,91.4,0,0,0,21.5
81,2021-07-05T01:20:00,1.6,東南東,2.5,東南東,26.1,91.4,0,0,0,21.5
82,2021-07-05T01:21:00,1.6,東南東,2.5,東南東,26.1,91.4,0,0,0,21.5
83,2021-07-05T01:22:00,1.6,東南東,2.5,東南東,26.1,91.3,0,0,0,21.5
84,2021-07-05T01:23:00,1.6,南東,2.5,南南東,26.1,91.2,0,0,0,21.5
85,2021-07-05T01:24:00,1.6,南東,2.5,南南東,26.1,91.1,0,0,0,21.5
86,2021-07-05T01:25:00,1.6,南東,2.8,南南東,26.1,91,0,0,0,21.5
87,2021-07-05T01:26:00,1.7,南東,2.8,南南東,26.1,91,0,0,0,21.5
88,2021-07-05T01:27:00,1.7,南東,2.8,南南東,26.1,90.9,0,0,0,21.5
89,2021-07-05T01:28:00,1.8,南東,2.8,南南東,26.1,90.9,0,0,0,21.5
90,2021-07-05T01:29:00,1.8,南東,2.8,南南東,26.1,91,0,0,0,21.5
91,2021-07-05T01:30:00,1.8,南東,2.8,南南東,26.1,90.9,0,0,0,21.5
92,2021-07-05T01:31:00,1.9,南東,2.8,南南東,26.2,90.7,0,0,0,21.5
93,2021-07-05T01:32:00,1.8,南東,2.8,南南東,26.2,90.5,0,0,0,21.5
94,2021-07-05T01:33:00,1.8,南東,2.8,南南東,26.2,90.4,0,0,0,21.5
95,2021-07-05T01:34:00,1.9,南東,2.8,南南東,26.2,90.5,0,0,0,21.5
96,2021-07-05T01:35:00,1.8,南東,2.7,南南東,26.2,90.5,0,0,0,21.5
97,2021-07-05T01:36:00,1.8,南南東,2.7,南南東,26.2,90.4,0,0,0,21.5
98,2021-07-05T01:37:00,1.8,南南東,2.7,南南東,26.2,90.1,0,0,0,21.5
99,2021-07-05T01:38:00,1.8,南南東,2.7,南南東,26.2,90.1,0,0,0,21.5
100,2021-07-05T01:39:00,1.7,南南東,2.5,南東,26.1,90.1,0,0,0,21.5
101,2021-07-05T01:40:00,1.7,南南東,2.5,南東,26.2,90.3,0,0,0,21.5
102,2021-07-05T01:41:00,1.7,南南東,2.5,南東,26.1,90.4,0,0,0,21.5
103,2021-07-05T01:42:00,1.8,南南東,2.5,南東,26.1,90.5,0,0,0,21.5
104,2021-07-05T01:43:00,1.7,南南東,2.5,南東,26.1,90.6,0,0,0,21.5
105,2021-07-05T01:44:00,1.7,南南東,2.5,南東,26.1,90.7,0,0,0,21.5
106,2021-07-05T01:45:00,1.6,南南東,2.4,南南東,26.1,90.7,0,0,0,21.5
107,2021-07-05T01:46:00,1.5,南南東,2.4,南南東,26.1,90.8,0,0,0,21.5
108,2021-07-05T01:47:00,1.4,南南東,2.4,南南東,26.1,90.9,0,0,0,21.5
109,2021-07-05T01:48:00,1.2,南南東,2.4,南南東,25.9,90.8,0,0,0,21.5
110,2021-07-05T01:49:00,1.1,南南東,2.4,南南東,25.7,91.1,0,0,0,21.5
111,2021-07-05T01:50:00,1,南南東,2.1,南,25.6,91.7,0,0,0,21.5
112,2021-07-05T01:51:00,0.9,南東,2.1,南,25.5,92.4,0,0,0,21.5
113,2021-07-05T01:52:00,0.9,東北東,2.1,南,25.5,93.2,0,0,0,21.5
114,2021-07-05T01:53:00,0.8,北東,1.8,南東,25.5,94,0,0,0,21.5
115,2021-07-05T01:54:00,0.7,北東,1.6,南,25.6,94.4,0,0,0,21.5
116,2021-07-05T01:55:00,0.7,北東,1.4,南南東,25.6,94.6,0,0,0,21.5
117,2021-07-05T01:56:00,0.6,北東,1.3,東南東,25.6,94.7,0,0,0,21.5
118,2021-07-05T01:57:00,0.6,北北東,1.3,東南東,25.6,94.8,0,0,0,21.5
119,2021-07-05T01:58:00,0.6,北東,1.3,東南東,25.6,94.8,0,0,0,21.5
120,2021-07-05T01:59:00,0.6,北東,1.3,東南東,25.6,94.9,0,0,0,21.5
121,2021-07-05T02:00:00,0.6,東北東,1.3,東南東,25.7,95,0,0,0,21.5
122,2021-07-05T02:01:00,0.5,東北東,1.3,東南東,25.7,95,0,0,0,21.5
123,2021-07-05T02:02:00,0.6,東,1.3,東南東,25.7,94.9,0,0,0,21.5
124,2021-07-05T02:03:00,0.6,東南東,1.3,東南東,25.8,94.7,0,0,0,21.5
125,2021-07-05T02:04:00,0.6,東南東,2,南東,25.8,94.5,0,0,0,21.5
126,2021-07-05T02:05:00,0.7,東南東,2,南東,25.8,94.3,0,0,0,21.5
127,2021-07-05T02:06:00,0.8,南東,2,南東,25.8,94.1,0,0,0,21.5
128,2021-07-05T02:07:00,1,南東,2.3,南南東,25.8,93.8,0,0,0,21.5
129,2021-07-05T02:08:00,1.2,南東,2.3,南南東,25.9,93.7,0,0,0,21.5
130,2021-07-05T02:09:00,1.3,南南東,2.3,南南東,25.9,93.5,0,0,0,21.5
131,2021-07-05T02:10:00,1.4,南南東,2.3,南南東,25.9,93.2,0,0,0,21.5
132,2021-07-05T02:11:00,1.4,南南東,2.3,南南東,25.9,93,0,0,0,21.5
133,2021-07-05T02:12:00,1.5,南南東,2.3,南南東,25.9,92.8,0,0,0,21.5
134,2021-07-05T02:13:00,1.5,南南東,2.3,南南東,25.8,92.6,0,0,0,21.5
135,2021-07-05T02:14:00,1.5,南東,2.3,南南東,25.8,92.7,0,0,0,21.5
136,2021-07-05T02:15:00,1.4,南東,2.3,南南東,25.8,93,0,0,0,21.5
137,2021-07-05T02:16:00,1.3,南東,2.3,南南東,25.8,93.1,0,0,0,21.5
138,2021-07-05T02:17:00,1.2,南東,1.9,南南東,25.8,93.3,0,0,0,21.5
139,2021-07-05T02:18:00,1.1,南東,1.9,南南東,25.8,93.3,0,0,0,21.5
140,2021-07-05T02:19:00,1,南東,1.8,南,25.8,93.4,0,0,0,21.5
141,2021-07-05T02:20:00,0.9,東南東,1.8,南,25.8,93.4,0,0,0,21.5
142,2021-07-05T02:21:00,0.8,東南東,1.7,南東,25.8,93.1,0,0,0,21.5
143,2021-07-05T02:22:00,0.7,東南東,1.5,南東,25.8,93.2,0,0,0,21.5
144,2021-07-05T02:23:00,0.7,東南東,1.5,南東,25.8,93.1,0,0,0,21.5
145,2021-07-05T02:24:00,0.8,南東,1.6,南東,25.7,93.2,0,0,0,21.5
146,2021-07-05T02:25:00,0.8,南東,1.6,南東,25.7,93.3,0,0,0,21.5
147,2021-07-05T02:26:00,0.8,南東,1.6,南東,25.7,93.5,0,0,0,21.5
148,2021-07-05T02:27:00,0.9,南東,1.6,南東,25.7,93.6,0,0,0,21.5
149,2021-07-05T02:28:00,0.9,南東,1.6,南東,25.7,93.8,0,0,0,21.5
150,2021-07-05T02:29:00,0.9,南東,1.6,南東,25.7,93.9,0,0,0,21.5
151,2021-07-05T02:30:00,1,南東,1.6,南東,25.7,94,0,0,0,21.5
152,2021-07-05T02:31:00,1,南東,1.6,南東,25.7,94,0,0,0,21.5
153,2021-07-05T02:32:00,1,南東,1.6,南東,25.8,93.9,0,0,0,21.5
154,2021-07-05T02:33:00,1,南南東,1.6,南東,25.8,93.8,0,0,0,21.5
155,2021-07-05T02:34:00,1,南南東,1.6,南東,25.8,93.6,0,0,0,21.5
156,2021-07-05T02:35:00,1,南南東,1.6,南東,25.8,93.4,0,0,0,21.5
157,2021-07-05T02:36:00,1,南南東,1.6,南東,25.8,93.3,0,0,0,21.5
158,2021-07-05T02:37:00,1,南南東,1.8,南,25.9,93.3,0,0,0,21.5
159,2021-07-05T02:38:00,1,南南東,1.8,南,25.9,93.2,0,0,0,21.5
160,2021-07-05T02:39:00,1,南,1.8,南,25.8,93.2,0,0,0,21.5
161,2021-07-05T02:40:00,1,南,1.8,南,25.8,93.1,0,0,0,21.5
162,2021-07-05T02:41:00,1.1,南,1.8,南,25.8,93.1,0,0,0,21.5
163,2021-07-05T02:42:00,1.1,南,1.8,南,25.8,93.1,0,0,0,21.5
164,2021-07-05T02:43:00,1.1,南南西,1.8,南,25.8,93.1,0,0,0,21.5
165,2021-07-05T02:44:00,1.1,南南西,1.8,南,25.9,92.9,0,0,0,21.5
166,2021-07-05T02:45:00,1.1,南南西,1.8,南,25.9,92.8,0,0,0,21.5
167,2021-07-05T02:46:00,1,南南西,1.8,南,25.9,92.7,0,0,0,21.5
168,2021-07-05T02:47:00,0.9,南南西,1.6,西南西,25.9,92.6,0,0,0,21.5
169,2021-07-05T02:48:00,0.8,南南西,1.6,西南西,25.9,92.6,0,0,0,21.5
170,2021-07-05T02:49:00,0.7,南南西,1.6,西南西,25.9,92.6,0,0,0,21.5
171,2021-07-05T02:50:00,0.6,南南西,1.5,南西,25.9,92.6,0,0,0,21.5
172,2021-07-05T02:51:00,0.5,南南西,1.5,南西,25.9,92.4,0,0,0,21.5
173,2021-07-05T02:52:00,0.4,南,1.5,南西,25.9,92.4,0,0,0,21.5
174,2021-07-05T02:53:00,0.4,南,1.4,西南西,25.9,92.2,0,0,0,21.5
175,2021-07-05T02:54:00,0.4,南,1.4,西南西,25.9,92.3,0,0,0,21.5
176,2021-07-05T02:55:00,0.4,南,1.2,南,25.8,92.2,0,0,0,21.5
177,2021-07-05T02:56:00,0.4,南,1.2,南,25.8,92.6,0,0,0,21.5
178,2021-07-05T02:57:00,0.4,南,1.2,南,25.8,92.8,0,0,0,21.5
179,2021-07-05T02:58:00,0.4,南南東,1.2,南,25.7,93.2,0,0,0,21.5
180,2021-07-05T02:59:00,0.4,南南東,1.2,南,25.7,93.3,0,0,0,21.5
181,2021-07-05T03:00:00,0.4,南南東,1.2,南,25.7,93.6,0,0,0,21.5
182,2021-07-05T03:01:00,0.3,南南東,1.2,南,25.7,93.9,0,0,0,21.5
183,2021-07-05T03:02:00,0.3,南,1.2,南,25.6,94.2,0,0,0,21.5
184,2021-07-05T03:03:00,0.3,南南東,1.2,南,25.6,94.4,0,0,0,21.5
185,2021-07-05T03:04:00,0.3,南南東,1.2,南,25.6,94.6,0,0,0,21.5
186,2021-07-05T03:05:00,0.4,南南東,1.7,南東,25.6,94.9,0,0,0,21.5
187,2021-07-05T03:06:00,0.5,南東,2,南東,25.6,94.9,0,0,0,21.5
188,2021-07-05T03:07:00,0.6,南東,2,南東,25.6,94.9,0,0,0,21.5
189,2021-07-05T03:08:00,0.8,南東,2,南東,25.6,95,0,0,0,21.5
190,2021-07-05T03:09:00,0.9,南東,2,南東,25.6,94.9,0,0,0,21.5
191,2021-07-05T03:10:00,1,南東,2,南東,25.6,94.8,0,0,0,21.5
192,2021-07-05T03:11:00,1.1,南東,2,南東,25.6,94.7,0,0,0,21.5
193,2021-07-05T03:12:00,1.3,南東,2.2,南南東,25.6,94.6,0,0,0,21.5
194,2021-07-05T03:13:00,1.4,南東,2.2,南南東,25.7,94.5,0,0,0,21.5
195,2021-07-05T03:14:00,1.4,南東,2.2,南南東,25.7,94.4,0,0,0,21.5
196,2021-07-05T03:15:00,1.4,南東,2.2,南南東,25.6,94.3,0,0,0,21.5
197,2021-07-05T03:16:00,1.3,南南東,2.2,南南東,25.6,94.2,0,0,0,21.5
198,2021-07-05T03:17:00,1.3,南南東,2.2,南南東,25.6,94.1,0,0,0,21.5
199,2021-07-05T03:18:00,1.3,南南東,2.2,南南東,25.6,94.1,0,0,0,21.5
200,2021-07-05T03:19:00,1.3,南南東,2.2,南南東,25.6,94.1,0,0,0,21.5
201,2021-07-05T03:20:00,1.3,南南東,2.2,南南東,25.5,94.3,0,0,0,21.5
202,2021-07-05T03:21:00,1.3,南南東,2.2,南南東,25.4,94.2,0,0,0,21.5
203,2021-07-05T03:22:00,1.3,南南東,2.1,南東,25.3,94.5,0,0,0,21.5
204,2021-07-05T03:23:00,1.4,南南東,2.1,南東,25.3,94.9,0,0,0,21.5
205,2021-07-05T03:24:00,1.4,南南東,2.1,南東,25.3,95.1,0,0,0,21.5
206,2021-07-05T03:25:00,1.3,南東,2.1,南東,25.3,95.3,0,0,0,21.5
207,2021-07-05T03:26:00,1.3,南東,2.1,南東,25.3,95.4,0,0,0,21.5
208,2021-07-05T03:27:00,1.2,南東,2.1,南東,25.3,95.5,0,0,0,21.5
209,2021-07-05T03:28:00,1.1,南東,2.1,南東,25.3,95.5,0,0,0,21.5
210,2021-07-05T03:29:00,1,南東,2.1,南東,25.3,95.5,0,0,0,21.5
211,2021-07-05T03:30:00,0.9,南東,2,南東,25.3,95.6,0,0,0,21.5
212,2021-07-05T03:31:00,0.8,南東,2,南東,25.3,95.7,0,0,0,21.5
213,2021-07-05T03:32:00,0.8,東南東,1.5,東南東,25.3,95.7,0,0,0,21.5
214,2021-07-05T03:33:00,0.8,東南東,1.6,南東,25.2,95.7,0,0,0,21.5
215,2021-07-05T03:34:00,0.8,東南東,2.1,東南東,25.3,95.8,0,0,0,21.5
216,2021-07-05T03:35:00,0.8,東南東,2.1,東南東,25.4,95.8,0,0,0,21.5
217,2021-07-05T03:36:00,0.8,東南東,2.1,東南東,25.4,95.8,0,0,0,21.5
218,2021-07-05T03:37:00,0.9,東南東,2.1,東南東,25.4,95.6,0,0,0,21.5
219,2021-07-05T03:38:00,1,東南東,2.1,東南東,25.4,95.5,0,0,0,21.5
220,2021-07-05T03:39:00,1,東南東,2.1,東南東,25.4,95.4,0,0,0,21.5
221,2021-07-05T03:40:00,1,東南東,2.1,東南東,25.3,95.4,0,0,0,21.5
222,2021-07-05T03:41:00,1,東南東,2.1,東南東,25.3,95.3,0,0,0,21.5
223,2021-07-05T03:42:00,1,東南東,2.1,東南東,25.3,95.5,0,0,0,21.5
224,2021-07-05T03:43:00,0.9,東南東,2.1,東南東,25.2,95.5,0,0,0,21.5
225,2021-07-05T03:44:00,0.9,東南東,1.8,南東,25.3,95.6,0,0,0,21.5
226,2021-07-05T03:45:00,0.9,東南東,1.8,南東,25.3,95.6,0,0,0,21.5
227,2021-07-05T03:46:00,0.9,南東,1.8,南東,25.3,95.6,0,0,0,21.5
228,2021-07-05T03:47:00,0.9,南東,1.8,南東,25.3,95.6,0,0,0,21.5
229,2021-07-05T03:48:00,0.8,南東,1.8,南東,25.3,95.6,0,0,0,21.5
230,2021-07-05T03:49:00,0.8,南南東,2.2,南南東,25.2,95.6,0,0,0,21.5
231,2021-07-05T03:50:00,1,南南東,2.8,南南西,25.3,95.6,0,0,0,21.5
232,2021-07-05T03:51:00,1.1,南南東,3,南,25.4,95.7,0,0,0,21.5
233,2021-07-05T03:52:00,1.3,南南東,3.3,南南西,25.6,95.6,0,0,0,21.5
234,2021-07-05T03:53:00,1.4,南南東,3.3,南南西,25.7,95.4,0,0,0,21.5
235,2021-07-05T03:54:00,1.5,南南東,3.3,南南西,25.7,95,0,0,0,21.5
236,2021-07-05T03:55:00,1.7,南南東,4,南,25.8,94.4,0,0,0,21.5
237,2021-07-05T03:56:00,1.8,南南東,4,南,25.9,93.9,0,0,0,21.5
238,2021-07-05T03:57:00,1.9,南,4,南,25.9,93.2,0,0,0,21.5
239,2021-07-05T03:58:00,2.1,南,4,南,25.9,92.5,0,0,0,21.5
240,2021-07-05T03:59:00,2.2,南,4,南,25.9,92.2,0,0,0,21.5
241,2021-07-05T04:00:00,2.3,南,6.8,南,26,91.9,0,0,0,21.5
242,2021-07-05T04:01:00,2.6,南,6.8,南,25.9,91.3,0,0,0,21.5
243,2021-07-05T04:02:00,2.6,南,6.8,南,25.8,91,0,0,0,21.5
244,2021-07-05T04:03:00,2.6,南,6.8,南,25.8,91.4,0,0,0,21.5
245,2021-07-05T04:04:00,2.5,南,6.8,南,25.9,91.5,0,0,0,21.5
246,2021-07-05T04:05:00,2.3,南,6.8,南,25.8,91.2,0,0,0,21.5
247,2021-07-05T04:06:00,2.2,南南西,6.8,南,25.6,90.9,0,0,0,21.5
248,2021-07-05T04:07:00,2.2,南南西,6.8,南,25.6,91.3,0,0,0,21.5
249,2021-07-05T04:08:00,2.3,南南西,6.8,南,25.7,91.8,0,0,0,21.5
250,2021-07-05T04:09:00,2.2,南南西,6.8,南,25.8,92,0,0,0,21.5
251,2021-07-05T04:10:00,2,南南西,6.5,南西,25.8,91.7,0,0,0,21.5
252,2021-07-05T04:11:00,1.8,南,4.1,南東,25.9,91.5,0,0,0,21.5
253,2021-07-05T04:12:00,1.7,南,4.1,南東,25.9,91.2,0,0,0,21.5
254,2021-07-05T04:13:00,1.6,南,2.7,南,25.9,90.9,0,0,0,21.5
255,2021-07-05T04:14:00,1.7,南,4.5,南,26,90.8,0,0,0,21.5
256,2021-07-05T04:15:00,1.8,南,4.5,南,26,90.6,0,0,0,21.5
257,2021-07-05T04:16:00,1.9,南,4.5,南,26.1,90.2,0,0,0,21.5
258,2021-07-05T04:17:00,1.8,南,4.5,南,26.1,89.9,0,0,0,21.5
259,2021-07-05T04:18:00,1.6,南南東,4.5,南,26,89.7,0,0,0,21.5
260,2021-07-05T04:19:00,1.5,南,4.5,南,26,89.6,0,0,0,21.5
261,2021-07-05T04:20:00,1.5,南,4.5,南,26,89.7,0,0,0,21.5
262,2021-07-05T04:21:00,1.4,南,4.5,南,26,89.6,0,0,0,21.5
263,2021-07-05T04:22:00,1.4,南,4.5,南,26.1,89.5,0,0,0,21.5
264,2021-07-05T04:23:00,1.4,南,4.5,南,26.1,89.2,0,0,0,21.5
265,2021-07-05T04:24:00,1.4,南,3.1,南東,26.2,88.9,0,0,0,21.5
266,2021-07-05T04:25:00,1.4,南,2.9,南南東,26.2,88.7,0,0,0,21.5
267,2021-07-05T04:26:00,1.3,南,2.7,南南西,26.1,88.6,0,0,0,21.5
268,2021-07-05T04:27:00,1.3,南,2.7,南南西,26.1,88.5,0,0,0,21.5
269,2021-07-05T04:28:00,1.4,南,2.8,南西,26.1,88.6,0,0,0,21.5
270,2021-07-05T04:29:00,1.5,南,3.1,南,26.1,88.7,0,0,0,21.5
271,2021-07-05T04:30:00,1.6,南,4.1,南南西,26.1,88.6,0,0,0,21.5
272,2021-07-05T04:31:00,1.8,南南西,4.4,南西,26.2,88.3,0,0,0,21.5
273,2021-07-05T04:32:00,2,南南西,4.4,南西,26.3,88,0,0,0,21.5
274,2021-07-05T04:33:00,2.1,南南西,4.4,南西,26.3,87.7,0,0,0,21.5
275,2021-07-05T04:34:00,2.2,南南西,4.4,南西,26.3,87.4,0,0,0,21.5
276,2021-07-05T04:35:00,2.3,南南西,4.4,南西,26.4,87.1,0,0,0,21.5
277,2021-07-05T04:36:00,2.4,南南西,4.4,南西,26.4,86.9,0,0,0,21.5
278,2021-07-05T04:37:00,2.6,南南西,4.4,南西,26.4,86.7,0,0,0,21.5
279,2021-07-05T04:38:00,2.8,南南西,4.4,南西,26.4,86.5,0,0,0,21.5
280,2021-07-05T04:39:00,2.8,南南西,4.4,南西,26.4,86.4,0,0,0,21.5
281,2021-07-05T04:40:00,2.8,南南西,4.6,南南西,26.4,86.4,0,0,0,21.5
282,2021-07-05T04:41:00,2.8,南南西,4.6,南南西,26.4,86.3,0,0,0,21.5
283,2021-07-05T04:42:00,2.8,南南西,5.1,南南西,26.5,86.2,0,0,0,21.5
284,2021-07-05T04:43:00,2.9,南南西,5.1,南南西,26.5,86,0,0,0,21.5
285,2021-07-05T04:44:00,3,南,5.1,南南西,26.5,85.9,0,0,0,21.5
286,2021-07-05T04:45:00,3,南,5.1,南南西,26.5,85.7,0,0,0,21.5
287,2021-07-05T04:46:00,3,南,5.1,南南西,26.5,85.8,0,0,0,21.5
288,2021-07-05T04:47:00,3,南南西,5.3,南西,26.5,85.8,0,0,0,21.5
289,2021-07-05T04:48:00,3.1,南南西,5.4,南南西,26.5,85.7,0,0,0,21.5
290,2021-07-05T04:49:00,3.3,南南西,5.4,南南西,26.5,85.5,0,0,0,21.5
291,2021-07-05T04:50:00,3.4,南南西,5.4,南南西,26.6,85.2,0,0,0,21.5
292,2021-07-05T04:51:00,3.3,南南西,5.4,南南西,26.6,85,0,0,0,21.5
293,2021-07-05T04:52:00,3.4,南南西,5.4,南南西,26.7,84.6,0,0,0,21.5
294,2021-07-05T04:53:00,3.4,南南西,5.4,南南西,26.7,84.3,0,0,0,21.5
295,2021-07-05T04:54:00,3.4,南南西,5.8,南南西,26.8,83.9,0,0,0,21.5
296,2021-07-05T04:55:00,3.5,南南西,5.8,南南西,26.8,83.8,0,0,0,21.5
297,2021-07-05T04:56:00,3.6,南南西,5.8,南南西,26.7,83.7,0,0,0,21.5
298,2021-07-05T04:57:00,3.5,南南西,5.8,南南西,26.7,83.9,0,0,0,21.5
299,2021-07-05T04:58:00,3.3,南南西,5.8,南南西,26.6,84.2,0,0,0,21.5
300,2021-07-05T04:59:00,3.1,南南西,5.8,南南西,26.6,84.5,0,0,0,21.5
301,2021-07-05T05:00:00,3,南南西,5.8,南南西,26.6,84.8,0,0,0,21.5
302,2021-07-05T05:01:00,3,南南西,5.8,南南西,26.6,84.8,0,0,0,21.5
303,2021-07-05T05:02:00,2.9,南南西,5.8,南南西,26.6,84.6,0,0,0,21.5
304,2021-07-05T05:03:00,2.8,南南西,5.8,南南西,26.6,84.5,0,0,0,21.5
305,2021-07-05T05:04:00,2.8,南南西,4.8,南南西,26.6,84.6,0,0,0,21.5
306,2021-07-05T05:05:00,2.8,南南西,4.4,南南西,26.6,84.7,0,0,0,21.5
307,2021-07-05T05:06:00,2.7,南南西,4.4,南南西,26.6,84.8,0,0,0,21.5
308,2021-07-05T05:07:00,2.7,南南西,4.4,南南西,26.5,85,0,0,0,21.5
309,2021-07-05T05:08:00,2.7,南南西,4.4,南南西,26.5,85.3,0,0,0,21.5
310,2021-07-05T05:09:00,2.8,南南西,4.4,南南西,26.4,85.7,0,0,0,21.5
311,2021-07-05T05:10:00,2.8,南,4.4,南南西,26.4,86,0,0,0,21.5
312,2021-07-05T05:11:00,2.7,南,4.4,南南西,26.4,86.2,0,0,0,21.5
313,2021-07-05T05:12:00,2.7,南,4.4,南南西,26.4,86.2,0,0,0,21.5
314,2021-07-05T05:13:00,2.7,南,4.7,南,26.4,86.3,0,0,0,21.5
315,2021-07-05T05:14:00,2.7,南,4.7,南,26.4,86.3,0,0,0,21.5
316,2021-07-05T05:15:00,2.7,南,5,南,26.5,86.2,0,0,0,21.5
317,2021-07-05T05:16:00,2.8,南,5,南,26.5,85.7,0,0,0,21.5
318,2021-07-05T05:17:00,2.9,南,5,南,26.6,85.3,0,0,0,21.5
319,2021-07-05T05:18:00,3,南,5,南,26.5,85.2,0,0,0,21.5
320,2021-07-05T05:19:00,3,南,5,南,26.5,85.2,0,0,0,21.5
321,2021-07-05T05:20:00,3,南,5,南,26.5,85.2,0,0,0,21.5
322,2021-07-05T05:21:00,3.1,南,5,南,26.6,84.9,0,0,0,21.5
323,2021-07-05T05:22:00,3.1,南,5,南,26.6,84.6,0,0,0,21.5
324,2021-07-05T05:23:00,3.1,南,5,南,26.7,84.5,0,0,0,21.5
325,2021-07-05T05:24:00,3.2,南,5,南,26.7,84.1,0,0,0,21.5
326,2021-07-05T05:25:00,3.2,南,5.8,南,26.7,83.9,0,0,0,21.5
327,2021-07-05T05:26:00,3.4,南,6.2,南,26.8,83.4,0,0,0,21.5
328,2021-07-05T05:27:00,3.4,南,6.2,南,26.9,82.8,0,0,0,21.5
329,2021-07-05T05:28:00,3.4,南,6.2,南,26.9,82.6,0,0,0,21.5
330,2021-07-05T05:29:00,3.5,南,6.2,南,26.8,82.6,0,0,0,21.5
331,2021-07-05T05:30:00,3.6,南,6.2,南,26.8,82.9,0,0,0,21.5
332,2021-07-05T05:31:00,3.7,南,6.2,南,26.8,83.1,0,0,0,21.5
333,2021-07-05T05:32:00,3.7,南,6.2,南,26.8,83.1,0,0,0,21.5
334,2021-07-05T05:33:00,3.8,南,6.2,南,26.8,83.1,0,0,0,21.5
335,2021-07-05T05:34:00,3.8,南,7.7,南南西,26.8,82.9,0,0,0,21.5
336,2021-07-05T05:35:00,3.9,南,8.4,南南西,26.8,82.8,0,0,0,21.5
337,2021-07-05T05:36:00,3.7,南南西,8.4,南南西,26.8,82.7,0,0,0,21.5
338,2021-07-05T05:37:00,3.6,南南西,8.4,南南西,26.7,82.9,0,0,0,21.5
339,2021-07-05T05:38:00,3.5,南南西,8.4,南南西,26.6,83.4,0,0,0,21.5
340,2021-07-05T05:39:00,3.5,南南西,8.4,南南西,26.6,83.8,0,0,0,21.5
341,2021-07-05T05:40:00,3.4,南南西,8.4,南南西,26.6,84,0,0,0,21.5
342,2021-07-05T05:41:00,3.3,南南西,8.4,南南西,26.6,84.2,0,0,0,21.5
343,2021-07-05T05:42:00,3.3,南南西,8.4,南南西,26.7,84.1,0,0,0,21.5
344,2021-07-05T05:43:00,3.3,南南西,8.4,南南西,26.8,83.8,0,0,0,21.5
345,2021-07-05T05:44:00,3.3,南南西,8.4,南南西,26.8,83.4,0,0,0,21.5
346,2021-07-05T05:45:00,3.1,南南西,5.8,南,26.8,83.1,0,0,0,21.5
347,2021-07-05T05:46:00,3,南南西,5.8,南,26.8,83.1,0,0,0,21.5
348,2021-07-05T05:47:00,3.1,南南西,5.8,南,26.7,83.3,0,0,0,21.5
349,2021-07-05T05:48:00,3.2,南南西,5.8,南,26.7,83.5,0,0,0,21.5
350,2021-07-05T05:49:00,3,南南西,5.8,南,26.7,83.5,0,0,0,21.5
351,2021-07-05T05:50:00,3.1,南南西,5.8,南,26.8,83.4,0,0,0,21.5
352,2021-07-05T05:51:00,3.2,南南西,5.6,南南西,26.9,83,0,0,0,21.5
353,2021-07-05T05:52:00,3.3,南南西,6.5,南南西,27,82.4,0,0,0,21.5
354,2021-07-05T05:53:00,3.4,南南西,6.5,南南西,27,81.8,0,0,0,21.5
355,2021-07-05T05:54:00,3.4,南南西,6.5,南南西,27,81.6,0,0,0,21.5
356,2021-07-05T05:55:00,3.5,南南西,6.5,南南西,26.9,81.9,0,0,0,21.5
357,2021-07-05T05:56:00,3.7,南,6.8,南南西,27,81.9,0,0,0,21.5
358,2021-07-05T05:57:00,3.9,南,6.8,南南西,27.1,81.5,0,0,0,21.5
359,2021-07-05T05:58:00,3.9,南南西,6.8,南南西,27,81.3,0,0,0,21.5
360,2021-07-05T05:59:00,4.1,南南西,6.8,南南西,27,81.2,0,0,0,21.5
361,2021-07-05T06:00:00,4,南南西,6.8,南南西,26.9,81.5,0,0,0,21.5
362,2021-07-05T06:01:00,3.8,南南西,6.8,南南西,26.8,81.9,0,0,0,21.5
363,2021-07-05T06:02:00,3.7,南南西,6.8,南南西,26.8,82.4,0,0,0,21.5
364,2021-07-05T06:03:00,3.8,南南西,7.2,南南西,27,82.1,0,0,0,21.5
365,2021-07-05T06:04:00,4,南南西,7.2,南南西,27,81.6,0,0,0,21.5
366,2021-07-05T06:05:00,4,南南西,7.2,南南西,27,81.3,0,0,0,21.5
367,2021-07-05T06:06:00,3.7,南南西,7.2,南南西,26.9,81.5,0,0,0,21.5
368,2021-07-05T06:07:00,3.6,南南西,7.2,南南西,26.9,81.9,0,0,0,21.5
369,2021-07-05T06:08:00,3.6,南南西,7.2,南南西,26.8,82.2,0,0,0,21.5
370,2021-07-05T06:09:00,3.6,南南西,7.2,南南西,26.8,82.4,0,0,0,21.5
371,2021-07-05T06:10:00,3.8,南南西,7.2,南南西,26.9,82.4,0,0,0,21.5
372,2021-07-05T06:11:00,4,南南西,7.2,南南西,26.8,82.4,0,0,0,21.5
373,2021-07-05T06:12:00,4,南南西,7.2,南南西,26.9,82.3,0,0,0,21.5
374,2021-07-05T06:13:00,4,南南西,6.6,南南西,27,82,0,0,0,21.5
375,2021-07-05T06:14:00,3.8,南南西,6.4,南南西,27,81.7,0,0,0,21.5
376,2021-07-05T06:15:00,3.7,南南西,6.4,南南西,27,81.6,0,0,0,21.5
377,2021-07-05T06:16:00,3.8,南南西,6.4,南南西,27,81.5,0,0,0,21.5
378,2021-07-05T06:17:00,3.9,南南西,6.4,南南西,27,81.4,0,0,0,21.5
379,2021-07-05T06:18:00,4,南,6.4,南南西,27,81.4,0,0,0,21.5
380,2021-07-05T06:19:00,4,南,6.4,南南西,27.1,81.3,0,0,0,21.5
381,2021-07-05T06:20:00,4.2,南,6.9,南西,27.1,81.1,0,0,0,21.5
382,2021-07-05T06:21:00,4.3,南,7.1,南,27.1,80.9,0,0,0,21.5
383,2021-07-05T06:22:00,4.4,南,7.1,南,27.1,80.9,0,0,0,21.5
384,2021-07-05T06:23:00,4.4,南,7.1,南,27.1,81,0,0,0,21.5
385,2021-07-05T06:24:00,4.6,南,7.7,南,27.1,80.9,0,0,0,21.5
386,2021-07-05T06:25:00,4.9,南,7.7,南,27.2,80.4,0,0,0,21.5
387,2021-07-05T06:26:00,5,南,7.7,南,27.2,79.9,0,0,0,21.5
388,2021-07-05T06:27:00,4.9,南,7.7,南,27.2,80,0,0,0,21.5
389,2021-07-05T06:28:00,5,南南西,7.7,南,27.2,80.1,0,0,0,21.5
390,2021-07-05T06:29:00,5.1,南南西,7.7,南,27.1,80.2,0,0,0,21.5
391,2021-07-05T06:30:00,5,南南西,7.7,南,27.1,80.5,0,0,0,21.5
392,2021-07-05T06:31:00,4.9,南南西,7.7,南,27.1,80.7,0,0,0,21.5
393,2021-07-05T06:32:00,4.8,南南西,7.7,南,27.1,80.8,0,0,0,21.5
394,2021-07-05T06:33:00,4.7,南南西,7.7,南,27.1,80.9,0,0,0,21.5
395,2021-07-05T06:34:00,4.6,南南西,7.5,南南西,27.1,80.9,0,0,0,21.5
396,2021-07-05T06:35:00,4.4,南南西,7.5,南南西,27,81,0,0,0,21.5
397,2021-07-05T06:36:00,4.3,南,7,南南西,27.1,81,0,0,0,21.5
398,2021-07-05T06:37:00,4.4,南,7,南南西,27.2,80.5,0,0,0,21.5
399,2021-07-05T06:38:00,4.2,南,6.8,南,27.2,80.3,0,0,0,21.5
400,2021-07-05T06:39:00,4.3,南,6.9,南西,27.1,80.2,0,0,0,21.5
401,2021-07-05T06:40:00,4.4,南,7.9,南,27.2,80.3,0,0,0,21.5
402,2021-07-05T06:41:00,4.6,南,8.1,南南西,27.1,80.3,0,0,0,21.5
403,2021-07-05T06:42:00,4.8,南,8.3,南南西,27.2,80.1,0,0,0,21.5
404,2021-07-05T06:43:00,5.1,南,8.3,南南西,27.2,79.9,0,0,0,21.5
405,2021-07-05T06:44:00,5.2,南,8.3,南南西,27.2,80,0,0,0,21.5
406,2021-07-05T06:45:00,5.3,南,8.3,南南西,27.1,80.2,0,0,0,21.5
407,2021-07-05T06:46:00,5.4,南南西,8.3,南南西,27.1,80.4,0,0,0,21.5